Regional Weather Roundup
Issued by NWS

Home | Current Version | Previous Version | Graphics & Text | Print | Product List | Glossary On
Versions: 1 2 3 4 5 6 7 8 9 10 11 12 13 14 15 16 17 18 19 20 21 22 23 24 25 26 27 28 29 30 31 32 33 34 35 36 37 38 39 40 41 42 43 44 45 46 47 48 49 50
000
ASUS43 KLMK 231210
RWRKY
KENTUCKY REGIONAL WEATHER ROUNDUP
NATIONAL WEATHER SERVICE LOUISVILLE KY
800 AM EDT FRI JUN 23 2017

NOTE "FAIR" INDICATES FEW OR NO CLOUDS BELOW 12,000 FEET
WITH NO SIGNIFICANT WEATHER AND/OR OBSTRUCTIONS TO VISIBILITY.

KYZ001>023-026-027-061>063-070>075-231300-
WESTERN AND SOUTH CENTRAL KENTUCKY

CITY           SKY/WX    TMP DP  RH WIND       PRES   REMARKS
PADUCAH        CLOUDY    77  71  82 S7        29.72S
HENDERSON      LGT RAIN  75  73  93 S5        29.75S
OWENSBORO      CLOUDY    76  73  91 S10       29.77F
HOPKINSVILLE   SUNNY     78  72  82 S12       29.78F
BOWLING GREEN  CLOUDY    78  73  84 S12       29.82S
GLASGOW        PTSUNNY   76  70  83 S9G18     29.85R
$$

KYZ024-025-028>034-038-045-046-053-231300-
NORTH CENTRAL KENTUCKY

CITY           SKY/WX    TMP DP  RH WIND       PRES   REMARKS
LOUISVILLE/SDF CLOUDY    77  73  87 S13       29.79S
LOUISVILLE/LOU CLOUDY    77  74  90 S6        29.79F
FORT KNOX      CLOUDY    76  73  90 SW12      29.80R
$$

KYZ035>037-039>044-047>052-055>060-089>105-231300-
NORTHEAST KENTUCKY

CITY           SKY/WX    TMP DP  RH WIND       PRES   REMARKS
LEXINGTON      CLOUDY    76  70  82 SW16      29.84S
COVINGTON      CLOUDY    74  73  97 SW13G20   29.77S
FRANKFORT      PTSUNNY   77  71  82 SW12G18   29.80F
$$

KYZ054-064>069-076>088-106>120-231300-
SOUTHEAST KENTUCKY

CITY           SKY/WX    TMP DP  RH WIND       PRES   REMARKS
JACKSON        CLOUDY    73  69  87 VRB5      29.90S
LONDON         CLOUDY    73  70  90 S10       29.91S
SOMERSET       CLOUDY    73  72  94 S5        29.90S
MIDDLESBORO    CLOUDY    73  69  87 SW14G26   29.95R
MONTICELLO     CLOUDY    75  71  87 E7        29.91S
$$





USA.gov is the U.S. government's official web portal to all federal, state and local government web resources and services.